Location: Caltech
(34.1382°N, 118.1253°W)
Time: 01:41:53
(UTC-07:00)

Iridium 95 - Visible Passes

Search period start: 27 April 2018 00:00
Search period end: 07 May 2018 00:00
Orbit: 775 x 779 km, 86.4° (Epoch: 26 April)

Date Brightness Start Highest point End Pass type
(mag) Time Alt. Az. Time Alt. Az. Time Alt. Az.
27 Apr 6.3 20:12:30 10° SSE 20:17:04 32° E 20:21:39 10° NNE visible
27 Apr 7.7 21:53:39 10° SW 21:57:45 23° W 22:01:52 10° NNW visible
28 Apr 6.6 21:19:07 10° SSW 21:24:03 44° W 21:29:03 10° NNW visible
29 Apr 5.5 20:45:17 10° S 20:50:30 87° W 20:55:45 10° N visible
30 Apr 5.8 20:12:05 10° SSE 20:17:03 48° E 20:22:03 10° NNE visible
30 Apr 8.2 21:54:56 10° WSW 21:58:00 16° WNW 22:01:05 10° NW visible
01 May 7.4 21:19:43 10° SW 21:24:14 30° W 21:28:47 10° NNW visible
02 May 6.2 20:45:29 10° SSW 20:50:36 58° W 20:55:45 10° N visible
03 May 5.5 20:11:54 10° S 20:17:05 72° E 20:22:17 10° N visible
04 May 8.1 21:20:39 10° SW 21:24:27 20° W 21:28:16 10° NNW visible
05 May 7.0 20:45:55 10° SSW 20:50:44 39° W 20:55:36 10° NNW visible
06 May 5.8 20:11:57 10° S 20:17:09 76° W 20:22:22 10° N visible
